Retour au catalogue

METEOR 1-17 DEB

ActifPO
NORAD 57537·DEBRIS·🇷🇺 Russia

Lancé Apr 24, 1974 depuis Plesetsk Cosmodrome

Loading…

Prochains Passages (prochaines 24 heures)

TLE

FraisSource: Space-Track

Époque: Sep 12, 2026, 02:47 UTC

1 57537U 74025C   26255.11607056  .00004034  00000-0  17153-2 0  9991
2 57537  81.2006 195.8241 0008208 122.0714 238.1263 14.25083646163094

Suivez METEOR 1-17 DEB en temps réel avec AllMySat

Download on the App Store